Darstellungsparameter: Aktuell verwendete Einstellungen:
Skalierung der Graphiken ... ?
xyx+y,   Skalierungsfaktor:      Skalierung: Modus: x, Faktor: 1
Darstellungszeitraum ... ?
Vom - - bis: - -   Zeitraum: 08.10.2019 - 10.10.2019
Min/Max/Avg-Anzeige ... ?
Zeige MMA aktuell
Zeige MMA Monat
Zeige MMA alles
Zeige --A aktuell
Zeige --A Monat
Zeige --A alles
Keine MMA-Anzeige
MMA:
Minimum Maximum Average (ber die Originaldaten)
MMA-Basis: 14.04.2020 - 16.05.2020
Quicknavigation für Darstellung... ?
Tage:      1T, 2T, 3T, 5T -1T -2T -3T -5T +1T +2T +3T +5T
Wochen: 1W, 2W, 3W -1W -2W -3W +1W +2W +3W
Monate: 1M, 3M, 6M -1M -3M -6M +1M +3M +6M
Jahre:    1J, 3J, 5J, 10J -1J -3J -5J -10J +1J +3J +5J +10J
Nutze für die Darstellung ... ?
Originaldaten oder Mittelwerte auf ...
Stundenbasis Tagesbasis Wochenbasis
Monatsbasis Jahresbasis      Datenbasis: Original-Daten
Darstellen als:
Statistik (Auto) Statistik J:M      Darstellung:
Zur Graphik,    zurück zur Übersicht aller Sensoren.
 
Tabellarische Datenbersicht: ?
 
Sensor: Nr:Datum:Temp:Abs-Feuchte:Windchill:Wind:
Aussen-T/F 1 08-10-2019 00:00:00 11.1 C 9.67 g/m*3 11.1 C 0 km/h
2 08-10-2019 00:05:00 11.1 C 9.67 g/m*3 11.1 C 0 km/h
3 08-10-2019 00:10:00 11.1 C 9.67 g/m*3 11.1 C 0 km/h
4 08-10-2019 00:15:00 11.1 C 9.67 g/m*3 11.1 C 0 km/h
5 08-10-2019 00:20:00 11.1 C 9.77 g/m*3 11.1 C 0 km/h
6 08-10-2019 00:25:00 11.1 C 9.77 g/m*3 11.1 C 0 km/h
7 08-10-2019 00:30:00 11.1 C 9.77 g/m*3 11.1 C 0 km/h
8 08-10-2019 00:35:00 11.1 C 9.77 g/m*3 11.1 C 0 km/h
9 08-10-2019 00:40:00 11.1 C 9.77 g/m*3 11.1 C 0 km/h
10 08-10-2019 00:45:00 11.1 C 9.77 g/m*3 11.1 C 1.6 km/h
11 08-10-2019 00:50:00 11.2 C 9.83 g/m*3 11.2 C 4.8 km/h
12 08-10-2019 00:55:00 11.2 C 9.83 g/m*3 11.2 C 0 km/h
13 08-10-2019 01:00:00 11.2 C 9.73 g/m*3 11.2 C 1.6 km/h
14 08-10-2019 01:05:00 11.2 C 9.73 g/m*3 11.2 C 1.6 km/h
15 08-10-2019 01:10:00 11.2 C 9.73 g/m*3 11.2 C 0 km/h
16 08-10-2019 01:15:00 11.2 C 9.73 g/m*3 11.2 C 1.6 km/h
17 08-10-2019 01:20:00 11.2 C 9.73 g/m*3 11.2 C 0 km/h
18 08-10-2019 01:25:00 11.2 C 9.73 g/m*3 11.2 C 1.6 km/h
19 08-10-2019 01:30:00 11.2 C 9.73 g/m*3 11.2 C 1.6 km/h
20 08-10-2019 01:35:00 11.3 C 9.79 g/m*3 11.3 C 1.6 km/h
21 08-10-2019 01:40:00 11.3 C 9.79 g/m*3 11.3 C 1.6 km/h
22 08-10-2019 01:45:00 11.3 C 9.89 g/m*3 11.3 C 0 km/h
23 08-10-2019 01:50:00 11.3 C 9.89 g/m*3 11.3 C 3.2 km/h
24 08-10-2019 01:55:00 11.4 C 9.96 g/m*3 11.4 C 1.6 km/h
25 08-10-2019 02:00:00 11.4 C 9.85 g/m*3 11.4 C 0 km/h
Sensor: Nr:Datum:Temp:Abs-Feuchte:Windchill:Wind:
Aussen-T/F 26 08-10-2019 02:05:00 11.4 C 9.85 g/m*3 11.4 C 0 km/h
27 08-10-2019 02:10:00 11.4 C 9.85 g/m*3 11.4 C 0 km/h
28 08-10-2019 02:15:00 11.4 C 9.85 g/m*3 11.4 C 0 km/h
29 08-10-2019 02:20:00 11.4 C 9.85 g/m*3 11.4 C 0 km/h
30 08-10-2019 02:25:00 11.4 C 9.85 g/m*3 11.4 C 0 km/h
31 08-10-2019 02:30:00 11.4 C 9.85 g/m*3 11.4 C 0 km/h
32 08-10-2019 02:35:00 11.4 C 9.85 g/m*3 11.4 C 1.6 km/h
33 08-10-2019 02:40:00 11.4 C 9.85 g/m*3 11.4 C 1.6 km/h
34 08-10-2019 02:45:00 11.5 C 9.92 g/m*3 11.5 C 4.8 km/h
35 08-10-2019 02:50:00 11.6 C 9.98 g/m*3 11.6 C 0 km/h
36 08-10-2019 02:55:00 11.6 C 9.98 g/m*3 11.6 C 3.2 km/h
37 08-10-2019 03:00:00 11.6 C 9.98 g/m*3 11.6 C 1.6 km/h
38 08-10-2019 03:05:00 11.7 C 10.04 g/m*3 11.7 C 4.8 km/h
39 08-10-2019 03:10:00 11.7 C 10.04 g/m*3 11.7 C 8.1 km/h
40 08-10-2019 03:15:00 11.7 C 10.04 g/m*3 11.7 C 0 km/h
41 08-10-2019 03:20:00 11.7 C 10.04 g/m*3 11.7 C 1.6 km/h
42 08-10-2019 03:25:00 11.8 C 10.1 g/m*3 11.8 C 8.1 km/h
43 08-10-2019 03:30:00 11.8 C 10.1 g/m*3 11.8 C 4.8 km/h
44 08-10-2019 03:35:00 11.8 C 10.1 g/m*3 11.8 C 1.6 km/h
45 08-10-2019 03:40:00 11.8 C 10 g/m*3 11.8 C 8.1 km/h
46 08-10-2019 03:45:00 11.8 C 10.1 g/m*3 11.8 C 0 km/h
47 08-10-2019 03:50:00 11.8 C 10 g/m*3 11.8 C 4.8 km/h
48 08-10-2019 03:55:00 11.9 C 10.06 g/m*3 11.9 C 1.6 km/h
49 08-10-2019 04:00:00 11.9 C 10.06 g/m*3 11.9 C 6.4 km/h
50 08-10-2019 04:05:00 11.9 C 10.06 g/m*3 11.9 C 0 km/h
Sensor: Nr:Datum:Temp:Abs-Feuchte:Windchill:Wind:
Aussen-T/F 51 08-10-2019 04:10:00 11.9 C 10.06 g/m*3 11.9 C 1.6 km/h
52 08-10-2019 04:15:00 11.9 C 10.06 g/m*3 11.9 C 3.2 km/h
53 08-10-2019 04:20:00 11.8 C 10 g/m*3 11.8 C 3.2 km/h
54 08-10-2019 04:25:00 11.8 C 10 g/m*3 11.8 C 1.6 km/h
55 08-10-2019 04:30:00 11.9 C 10.06 g/m*3 11.9 C 3.2 km/h
56 08-10-2019 04:35:00 11.9 C 10.06 g/m*3 11.9 C 9.7 km/h
57 08-10-2019 04:40:00 11.9 C 9.96 g/m*3 11.9 C 0 km/h
58 08-10-2019 04:45:00 12 C 10.02 g/m*3 12 C 0 km/h
59 08-10-2019 04:50:00 11.9 C 9.96 g/m*3 11.9 C 3.2 km/h
60 08-10-2019 04:55:00 12 C 10.02 g/m*3 12 C 11.3 km/h
61 08-10-2019 05:00:00 12 C 10.02 g/m*3 12 C 3.2 km/h
62 08-10-2019 05:05:00 12.1 C 10.08 g/m*3 12.1 C 6.4 km/h
63 08-10-2019 05:10:00 12.1 C 9.97 g/m*3 12.1 C 8.1 km/h
64 08-10-2019 05:15:00 12.2 C 10.04 g/m*3 12.2 C 11.3 km/h
65 08-10-2019 05:20:00 12.3 C 9.99 g/m*3 12.3 C 9.7 km/h
66 08-10-2019 05:25:00 12.3 C 9.99 g/m*3 12.3 C 11.3 km/h
67 08-10-2019 05:30:00 12.4 C 9.94 g/m*3 12.4 C 11.3 km/h
68 08-10-2019 05:35:00 12.5 C 10 g/m*3 12.5 C 6.4 km/h
69 08-10-2019 05:40:00 12.5 C 10 g/m*3 12.5 C 4.8 km/h
70 08-10-2019 05:45:00 12.5 C 10 g/m*3 12.5 C 12.9 km/h
71 08-10-2019 05:50:00 12.5 C 10 g/m*3 12.5 C 8.1 km/h
72 08-10-2019 05:55:00 12.4 C 9.94 g/m*3 12.4 C 8.1 km/h
73 08-10-2019 06:00:00 12.4 C 9.94 g/m*3 12.4 C 9.7 km/h
74 08-10-2019 06:05:00 12.3 C 9.88 g/m*3 12.3 C 9.7 km/h
75 08-10-2019 06:10:00 12.3 C 9.99 g/m*3 12.3 C 9.7 km/h
Sensor: Nr:Datum:Temp:Abs-Feuchte:Windchill:Wind:
Aussen-T/F 76 08-10-2019 06:15:00 12.3 C 9.99 g/m*3 12.3 C 9.7 km/h
77 08-10-2019 06:20:00 12.2 C 9.93 g/m*3 12.2 C 3.2 km/h
78 08-10-2019 06:25:00 12.2 C 9.93 g/m*3 12.2 C 6.4 km/h
79 08-10-2019 06:30:00 12.2 C 9.93 g/m*3 12.2 C 0 km/h
80 08-10-2019 06:35:00 12.2 C 10.04 g/m*3 12.2 C 1.6 km/h
81 08-10-2019 06:40:00 12.1 C 9.97 g/m*3 12.1 C 0 km/h
82 08-10-2019 06:45:00 12.1 C 9.97 g/m*3 12.1 C 0 km/h
83 08-10-2019 06:50:00 12 C 10.02 g/m*3 12 C 1.6 km/h
84 08-10-2019 06:55:00 11.9 C 9.96 g/m*3 11.9 C 0 km/h
85 08-10-2019 07:00:00 11.9 C 9.96 g/m*3 11.9 C 0 km/h
86 08-10-2019 07:05:00 11.8 C 9.89 g/m*3 11.8 C 1.6 km/h
87 08-10-2019 07:10:00 11.8 C 9.89 g/m*3 11.8 C 0 km/h
88 08-10-2019 07:15:00 11.8 C 10 g/m*3 11.8 C 4.8 km/h
89 08-10-2019 07:20:00 11.8 C 10 g/m*3 11.8 C 6.4 km/h
90 08-10-2019 07:25:00 11.8 C 10 g/m*3 11.8 C 1.6 km/h
91 08-10-2019 07:30:00 11.8 C 10 g/m*3 11.8 C 3.2 km/h
92 08-10-2019 07:35:00 11.8 C 10 g/m*3 11.8 C 6.4 km/h
93 08-10-2019 07:40:00 11.8 C 10 g/m*3 11.8 C 0 km/h
94 08-10-2019 07:45:00 11.7 C 9.94 g/m*3 11.7 C 0 km/h
95 08-10-2019 07:50:00 11.7 C 9.94 g/m*3 11.7 C 4.8 km/h
96 08-10-2019 07:55:00 11.8 C 10 g/m*3 11.8 C 1.6 km/h
97 08-10-2019 08:00:00 11.8 C 10 g/m*3 11.8 C 3.2 km/h
98 08-10-2019 08:05:00 11.8 C 10 g/m*3 11.8 C 8.1 km/h
99 08-10-2019 08:10:00 11.8 C 10.1 g/m*3 11.8 C 1.6 km/h
100 08-10-2019 08:15:00 11.8 C 10.1 g/m*3 11.8 C 9.7 km/h
Sensor: Nr:Datum:Temp:Abs-Feuchte:Windchill:Wind:
Aussen-T/F 101 08-10-2019 08:20:00 11.8 C 10.1 g/m*3 11.8 C 6.4 km/h
102 08-10-2019 08:25:00 11.8 C 10.1 g/m*3 11.8 C 12.9 km/h
103 08-10-2019 08:30:00 11.8 C 10.1 g/m*3 11.8 C 1.6 km/h
104 08-10-2019 08:35:00 11.8 C 10.1 g/m*3 11.8 C 6.4 km/h
105 08-10-2019 08:40:00 11.8 C 10.1 g/m*3 11.8 C 0 km/h
106 08-10-2019 08:45:00 11.9 C 10.17 g/m*3 11.9 C 9.7 km/h
107 08-10-2019 08:50:00 11.9 C 10.17 g/m*3 11.9 C 1.6 km/h
108 08-10-2019 08:55:00 11.9 C 10.17 g/m*3 11.9 C 8.1 km/h
109 08-10-2019 09:00:00 11.9 C 10.17 g/m*3 11.9 C 6.4 km/h
110 08-10-2019 09:05:00 11.9 C 10.17 g/m*3 11.9 C 4.8 km/h
111 08-10-2019 09:10:00 11.9 C 10.17 g/m*3 11.9 C 4.8 km/h
112 08-10-2019 09:15:00 11.9 C 10.17 g/m*3 11.9 C 16.1 km/h
113 08-10-2019 09:20:00 11.9 C 10.17 g/m*3 11.9 C 16.1 km/h
114 08-10-2019 09:25:00 12 C 10.23 g/m*3 12 C 6.4 km/h
115 08-10-2019 09:30:00 12.1 C 10.29 g/m*3 12.1 C 4.8 km/h
116 08-10-2019 09:35:00 12.1 C 10.29 g/m*3 12.1 C 14.5 km/h
117 08-10-2019 09:40:00 12.1 C 10.29 g/m*3 12.1 C 11.3 km/h
118 08-10-2019 09:45:00 12.2 C 10.36 g/m*3 12.2 C 14.5 km/h
119 08-10-2019 09:50:00 12.2 C 10.36 g/m*3 12.2 C 12.9 km/h
120 08-10-2019 09:55:00 12.2 C 10.36 g/m*3 12.2 C 8.1 km/h
121 08-10-2019 10:00:00 12.3 C 10.42 g/m*3 12.3 C 11.3 km/h
122 08-10-2019 10:05:00 12.3 C 10.32 g/m*3 12.3 C 14.5 km/h
123 08-10-2019 10:10:00 12.3 C 10.32 g/m*3 12.3 C 11.3 km/h
124 08-10-2019 10:15:00 12.3 C 10.32 g/m*3 12.3 C 12.9 km/h
125 08-10-2019 10:20:00 12.4 C 10.38 g/m*3 12.4 C 11.3 km/h
Sensor: Nr:Datum:Temp:Abs-Feuchte:Windchill:Wind:
Aussen-T/F 126 08-10-2019 10:25:00 12.4 C 10.38 g/m*3 12.4 C 9.7 km/h
127 08-10-2019 10:30:00 12.4 C 10.38 g/m*3 12.4 C 8.1 km/h
128 08-10-2019 10:35:00 12.5 C 10.44 g/m*3 12.5 C 11.3 km/h
129 08-10-2019 10:40:00 12.6 C 10.51 g/m*3 12.6 C 16.1 km/h
130 08-10-2019 10:45:00 12.7 C 10.58 g/m*3 12.7 C 14.5 km/h
131 08-10-2019 10:50:00 12.8 C 10.64 g/m*3 12.8 C 11.3 km/h
132 08-10-2019 10:55:00 12.9 C 10.71 g/m*3 12.9 C 20.9 km/h
133 08-10-2019 11:00:00 13 C 10.66 g/m*3 13 C 20.9 km/h
134 08-10-2019 11:05:00 13.1 C 10.73 g/m*3 13.1 C 12.9 km/h
135 08-10-2019 11:10:00 13.1 C 10.73 g/m*3 13.1 C 9.7 km/h
136 08-10-2019 11:15:00 13.3 C 10.86 g/m*3 13.3 C 14.5 km/h
137 08-10-2019 11:20:00 13.4 C 10.93 g/m*3 13.4 C 11.3 km/h
138 08-10-2019 11:25:00 13.6 C 10.95 g/m*3 13.6 C 11.3 km/h
139 08-10-2019 11:30:00 13.6 C 10.95 g/m*3 13.6 C 9.7 km/h
140 08-10-2019 11:35:00 13.7 C 11.01 g/m*3 13.7 C 12.9 km/h
141 08-10-2019 11:40:00 13.8 C 10.96 g/m*3 13.8 C 16.1 km/h
142 08-10-2019 11:45:00 13.8 C 10.96 g/m*3 13.8 C 17.7 km/h
143 08-10-2019 11:50:00 13.8 C 10.96 g/m*3 13.8 C 16.1 km/h
144 08-10-2019 11:55:00 13.8 C 10.96 g/m*3 13.8 C 11.3 km/h
145 08-10-2019 12:00:00 13.8 C 10.96 g/m*3 13.8 C 14.5 km/h
146 08-10-2019 12:05:00 13.8 C 10.96 g/m*3 13.8 C 14.5 km/h
147 08-10-2019 12:10:00 13.8 C 10.96 g/m*3 13.8 C 11.3 km/h
148 08-10-2019 12:15:00 13.8 C 10.96 g/m*3 13.8 C 16.1 km/h
149 08-10-2019 12:20:00 13.8 C 10.96 g/m*3 13.8 C 19.3 km/h
150 08-10-2019 12:25:00 13.8 C 10.96 g/m*3 13.8 C 19.3 km/h
Sensor: Nr:Datum:Temp:Abs-Feuchte:Windchill:Wind:
Aussen-T/F 151 08-10-2019 12:30:00 13.8 C 10.96 g/m*3 13.8 C 14.5 km/h
152 08-10-2019 12:35:00 13.8 C 10.84 g/m*3 13.8 C 11.3 km/h
153 08-10-2019 12:40:00 13.9 C 10.91 g/m*3 13.9 C 14.5 km/h
154 08-10-2019 12:45:00 13.9 C 10.91 g/m*3 13.9 C 14.5 km/h
155 08-10-2019 12:50:00 14 C 10.98 g/m*3 14 C 8.1 km/h
156 08-10-2019 12:55:00 14.1 C 11.04 g/m*3 14.1 C 14.5 km/h
157 08-10-2019 13:00:00 14.1 C 11.04 g/m*3 14.1 C 12.9 km/h
158 08-10-2019 13:05:00 14.1 C 11.04 g/m*3 14.1 C 12.9 km/h
159 08-10-2019 13:10:00 14.2 C 11.11 g/m*3 14.2 C 14.5 km/h
160 08-10-2019 13:15:00 14.2 C 11.11 g/m*3 14.2 C 11.3 km/h
161 08-10-2019 13:20:00 14.2 C 11.11 g/m*3 14.2 C 17.7 km/h
162 08-10-2019 13:25:00 14.2 C 11.23 g/m*3 14.2 C 9.7 km/h
163 08-10-2019 13:30:00 14.2 C 11.23 g/m*3 14.2 C 6.4 km/h
164 08-10-2019 13:35:00 14.3 C 11.3 g/m*3 14.3 C 4.8 km/h
165 08-10-2019 13:40:00 14.2 C 11.11 g/m*3 14.2 C 9.7 km/h
166 08-10-2019 13:45:00 14.3 C 11.3 g/m*3 14.3 C 4.8 km/h
167 08-10-2019 13:50:00 14.3 C 11.3 g/m*3 14.3 C 4.8 km/h
168 08-10-2019 13:55:00 14.4 C 11.37 g/m*3 14.4 C 9.7 km/h
169 08-10-2019 14:00:00 14.4 C 11.37 g/m*3 14.4 C 8.1 km/h
170 08-10-2019 14:05:00 14.4 C 11.25 g/m*3 14.4 C 14.5 km/h
171 08-10-2019 14:10:00 14.5 C 11.44 g/m*3 14.5 C 11.3 km/h
172 08-10-2019 14:15:00 14.6 C 11.51 g/m*3 14.6 C 6.4 km/h
173 08-10-2019 14:20:00 14.6 C 11.51 g/m*3 14.6 C 6.4 km/h
174 08-10-2019 14:25:00 14.6 C 11.39 g/m*3 14.6 C 12.9 km/h
175 08-10-2019 14:30:00 14.6 C 11.39 g/m*3 14.6 C 8.1 km/h
Sensor: Nr:Datum:Temp:Abs-Feuchte:Windchill:Wind:
Aussen-T/F 176 08-10-2019 14:35:00 14.7 C 11.46 g/m*3 14.7 C 6.4 km/h
177 08-10-2019 14:40:00 14.7 C 11.46 g/m*3 14.7 C 12.9 km/h
178 08-10-2019 14:45:00 14.7 C 11.46 g/m*3 14.7 C 12.9 km/h
179 08-10-2019 14:50:00 14.7 C 11.46 g/m*3 14.7 C 8.1 km/h
180 08-10-2019 14:55:00 14.7 C 11.46 g/m*3 14.7 C 12.9 km/h
181 08-10-2019 15:00:00 14.7 C 11.46 g/m*3 14.7 C 12.9 km/h
182 08-10-2019 15:05:00 14.6 C 11.39 g/m*3 14.6 C 9.7 km/h
183 08-10-2019 15:10:00 14.6 C 11.39 g/m*3 14.6 C 17.7 km/h
184 08-10-2019 15:15:00 14.6 C 11.39 g/m*3 14.6 C 9.7 km/h
185 08-10-2019 15:20:00 14.6 C 11.51 g/m*3 14.6 C 8.1 km/h
186 08-10-2019 15:25:00 14.6 C 11.51 g/m*3 14.6 C 8.1 km/h
187 08-10-2019 15:30:00 14.5 C 11.57 g/m*3 14.5 C 4.8 km/h
188 08-10-2019 15:35:00 14.4 C 11.5 g/m*3 14.4 C 11.3 km/h
189 08-10-2019 15:40:00 14.3 C 11.43 g/m*3 14.3 C 11.3 km/h
190 08-10-2019 15:45:00 14.3 C 11.43 g/m*3 14.3 C 8.1 km/h
191 08-10-2019 15:50:00 14.3 C 11.55 g/m*3 14.3 C 1.6 km/h
192 08-10-2019 15:55:00 14.3 C 11.55 g/m*3 14.3 C 11.3 km/h
193 08-10-2019 16:00:00 14.3 C 11.55 g/m*3 14.3 C 6.4 km/h
194 08-10-2019 16:05:00 14.3 C 11.55 g/m*3 14.3 C 8.1 km/h
195 08-10-2019 16:10:00 14.3 C 11.55 g/m*3 14.3 C 3.2 km/h
196 08-10-2019 16:15:00 14.3 C 11.55 g/m*3 14.3 C 4.8 km/h
197 08-10-2019 16:20:00 14.2 C 11.48 g/m*3 14.2 C 6.4 km/h
198 08-10-2019 16:25:00 14.2 C 11.48 g/m*3 14.2 C 11.3 km/h
199 08-10-2019 16:30:00 14.2 C 11.6 g/m*3 14.2 C 8.1 km/h
200 08-10-2019 16:35:00 14.2 C 11.6 g/m*3 14.2 C 8.1 km/h
Sensor: Nr:Datum:Temp:Abs-Feuchte:Windchill:Wind:
Aussen-T/F 201 08-10-2019 16:40:00 14.2 C 11.6 g/m*3 14.2 C 6.4 km/h
202 08-10-2019 16:45:00 14.2 C 11.6 g/m*3 14.2 C 4.8 km/h
203 08-10-2019 16:50:00 14.2 C 11.6 g/m*3 14.2 C 8.1 km/h
204 08-10-2019 16:55:00 14.1 C 11.53 g/m*3 14.1 C 4.8 km/h
205 08-10-2019 17:00:00 14.1 C 11.53 g/m*3 14.1 C 9.7 km/h
206 08-10-2019 17:05:00 14.1 C 11.53 g/m*3 14.1 C 9.7 km/h
207 08-10-2019 17:10:00 14.1 C 11.53 g/m*3 14.1 C 1.6 km/h
208 08-10-2019 17:15:00 14.1 C 11.53 g/m*3 14.1 C 1.6 km/h
209 08-10-2019 17:20:00 14.1 C 11.53 g/m*3 14.1 C 3.2 km/h
210 08-10-2019 17:25:00 14 C 11.46 g/m*3 14 C 4.8 km/h
211 08-10-2019 17:30:00 14.1 C 11.53 g/m*3 14.1 C 1.6 km/h
212 08-10-2019 17:35:00 14.1 C 11.65 g/m*3 14.1 C 1.6 km/h
213 08-10-2019 17:40:00 14.1 C 11.65 g/m*3 14.1 C 1.6 km/h
214 08-10-2019 17:45:00 14 C 11.58 g/m*3 14 C 3.2 km/h
215 08-10-2019 17:50:00 14 C 11.58 g/m*3 14 C 3.2 km/h
216 08-10-2019 17:55:00 13.9 C 11.51 g/m*3 13.9 C 1.6 km/h
217 08-10-2019 18:00:00 13.9 C 11.51 g/m*3 13.9 C 1.6 km/h
218 08-10-2019 18:05:00 13.9 C 11.51 g/m*3 13.9 C 8.1 km/h
219 08-10-2019 18:10:00 13.9 C 11.51 g/m*3 13.9 C 4.8 km/h
220 08-10-2019 18:15:00 13.9 C 11.51 g/m*3 13.9 C 8.1 km/h
221 08-10-2019 18:20:00 13.9 C 11.51 g/m*3 13.9 C 3.2 km/h
222 08-10-2019 18:25:00 13.9 C 11.51 g/m*3 13.9 C 9.7 km/h
223 08-10-2019 18:30:00 13.9 C 11.51 g/m*3 13.9 C 0 km/h
224 08-10-2019 18:35:00 13.9 C 11.51 g/m*3 13.9 C 0 km/h
225 08-10-2019 18:40:00 13.8 C 11.44 g/m*3 13.8 C 0 km/h
Sensor: Nr:Datum:Temp:Abs-Feuchte:Windchill:Wind:
Aussen-T/F 226 08-10-2019 18:45:00 13.8 C 11.44 g/m*3 13.8 C 0 km/h
227 08-10-2019 18:50:00 13.8 C 11.44 g/m*3 13.8 C 0 km/h
228 08-10-2019 18:55:00 13.8 C 11.44 g/m*3 13.8 C 1.6 km/h
229 08-10-2019 19:00:00 13.7 C 11.37 g/m*3 13.7 C 3.2 km/h
230 08-10-2019 19:05:00 13.8 C 11.44 g/m*3 13.8 C 6.4 km/h
231 08-10-2019 19:10:00 13.8 C 11.44 g/m*3 13.8 C 8.1 km/h
232 08-10-2019 19:15:00 13.8 C 11.44 g/m*3 13.8 C 1.6 km/h
233 08-10-2019 19:20:00 13.8 C 11.44 g/m*3 13.8 C 3.2 km/h
234 08-10-2019 19:25:00 13.8 C 11.44 g/m*3 13.8 C 0 km/h
235 08-10-2019 19:30:00 13.8 C 11.44 g/m*3 13.8 C 0 km/h
236 08-10-2019 19:35:00 13.8 C 11.44 g/m*3 13.8 C 0 km/h
237 08-10-2019 19:40:00 13.8 C 11.44 g/m*3 13.8 C 0 km/h
238 08-10-2019 19:45:00 13.8 C 11.44 g/m*3 13.8 C 0 km/h
239 08-10-2019 19:50:00 13.8 C 11.44 g/m*3 13.8 C 0 km/h
240 08-10-2019 19:55:00 13.8 C 11.44 g/m*3 13.8 C 0 km/h
241 08-10-2019 20:00:00 13.7 C 11.37 g/m*3 13.7 C 1.6 km/h
242 08-10-2019 20:05:00 13.6 C 11.3 g/m*3 13.6 C 0 km/h
243 08-10-2019 20:10:00 13.6 C 11.3 g/m*3 13.6 C 3.2 km/h
244 08-10-2019 20:15:00 13.6 C 11.3 g/m*3 13.6 C 1.6 km/h
245 08-10-2019 20:20:00 13.6 C 11.3 g/m*3 13.6 C 0 km/h
246 08-10-2019 20:25:00 13.6 C 11.3 g/m*3 13.6 C 0 km/h
247 08-10-2019 20:30:00 13.6 C 11.3 g/m*3 13.6 C 0 km/h
248 08-10-2019 20:35:00 13.6 C 11.42 g/m*3 13.6 C 0 km/h
249 08-10-2019 20:40:00 13.5 C 11.35 g/m*3 13.5 C 0 km/h
250 08-10-2019 20:45:00 13.4 C 11.28 g/m*3 13.4 C 0 km/h
Sensor: Nr:Datum:Temp:Abs-Feuchte:Windchill:Wind:
Aussen-T/F 251 08-10-2019 20:50:00 13.4 C 11.28 g/m*3 13.4 C 0 km/h
252 08-10-2019 20:55:00 13.4 C 11.16 g/m*3 13.4 C 0 km/h
253 08-10-2019 21:00:00 13.3 C 11.09 g/m*3 13.3 C 0 km/h
254 08-10-2019 21:05:00 13.3 C 11.09 g/m*3 13.3 C 0 km/h
255 08-10-2019 21:10:00 13.3 C 11.21 g/m*3 13.3 C 0 km/h
256 08-10-2019 21:15:00 13.3 C 11.21 g/m*3 13.3 C 0 km/h
257 08-10-2019 21:20:00 13.3 C 11.21 g/m*3 13.3 C 0 km/h
258 08-10-2019 21:25:00 13.3 C 11.21 g/m*3 13.3 C 0 km/h
259 08-10-2019 21:30:00 13.2 C 11.14 g/m*3 13.2 C 0 km/h
260 08-10-2019 21:35:00 13.2 C 11.14 g/m*3 13.2 C 0 km/h
261 08-10-2019 21:40:00 13.2 C 11.14 g/m*3 13.2 C 0 km/h
262 08-10-2019 21:45:00 13.1 C 11.07 g/m*3 13.1 C 0 km/h
263 08-10-2019 21:50:00 13.1 C 11.07 g/m*3 13.1 C 0 km/h
264 08-10-2019 21:55:00 13.1 C 11.07 g/m*3 13.1 C 1.6 km/h
265 08-10-2019 22:00:00 13.1 C 11.07 g/m*3 13.1 C 0 km/h
266 08-10-2019 22:05:00 13 C 11 g/m*3 13 C 0 km/h
267 08-10-2019 22:10:00 13 C 11 g/m*3 13 C 0 km/h
268 08-10-2019 22:15:00 13 C 11 g/m*3 13 C 0 km/h
269 08-10-2019 22:20:00 12.9 C 10.93 g/m*3 12.9 C 0 km/h
270 08-10-2019 22:25:00 12.9 C 10.93 g/m*3 12.9 C 0 km/h
271 08-10-2019 22:30:00 12.8 C 10.87 g/m*3 12.8 C 0 km/h
272 08-10-2019 22:35:00 12.8 C 10.87 g/m*3 12.8 C 0 km/h
273 08-10-2019 22:40:00 12.7 C 10.8 g/m*3 12.7 C 0 km/h
274 08-10-2019 22:45:00 12.7 C 10.8 g/m*3 12.7 C 0 km/h
275 08-10-2019 22:50:00 12.6 C 10.73 g/m*3 12.6 C 0 km/h
Sensor: Nr:Datum:Temp:Abs-Feuchte:Windchill:Wind:
Aussen-T/F 276 08-10-2019 22:55:00 12.4 C 10.6 g/m*3 12.4 C 0 km/h
277 08-10-2019 23:00:00 12.2 C 10.36 g/m*3 12.2 C 0 km/h
278 08-10-2019 23:05:00 12.1 C 10.29 g/m*3 12.1 C 1.6 km/h
279 08-10-2019 23:10:00 12 C 10.23 g/m*3 12 C 0 km/h
280 08-10-2019 23:15:00 11.8 C 10.1 g/m*3 11.8 C 0 km/h
281 08-10-2019 23:20:00 11.7 C 10.04 g/m*3 11.7 C 0 km/h
282 08-10-2019 23:25:00 11.7 C 10.04 g/m*3 11.7 C 0 km/h
283 08-10-2019 23:30:00 11.6 C 9.98 g/m*3 11.6 C 1.6 km/h
284 08-10-2019 23:35:00 11.6 C 9.98 g/m*3 11.6 C 1.6 km/h
285 08-10-2019 23:40:00 11.5 C 9.92 g/m*3 11.5 C 1.6 km/h
286 08-10-2019 23:45:00 11.4 C 9.96 g/m*3 11.4 C 0 km/h
287 08-10-2019 23:50:00 11.3 C 9.89 g/m*3 11.3 C 0 km/h
288 08-10-2019 23:55:00 11.3 C 9.79 g/m*3 11.3 C 0 km/h
289 09-10-2019 00:00:00 11.2 C 9.73 g/m*3 11.2 C 1.6 km/h
290 09-10-2019 00:05:00 11.2 C 9.83 g/m*3 11.2 C 0 km/h
291 09-10-2019 00:10:00 11.1 C 9.77 g/m*3 11.1 C 0 km/h
292 09-10-2019 00:15:00 11 C 9.71 g/m*3 11 C 0 km/h
293 09-10-2019 00:20:00 10.9 C 9.65 g/m*3 10.9 C 0 km/h
294 09-10-2019 00:25:00 10.8 C 9.59 g/m*3 10.8 C 0 km/h
295 09-10-2019 00:30:00 10.8 C 9.59 g/m*3 10.8 C 0 km/h
296 09-10-2019 00:35:00 10.7 C 9.53 g/m*3 10.7 C 0 km/h
297 09-10-2019 00:40:00 10.5 C 9.31 g/m*3 10.5 C 0 km/h
298 09-10-2019 00:45:00 10.4 C 9.35 g/m*3 10.4 C 0 km/h
299 09-10-2019 00:50:00 10.4 C 9.35 g/m*3 10.4 C 0 km/h
300 09-10-2019 00:55:00 10.4 C 9.35 g/m*3 10.4 C 0 km/h
Sensor: Nr:Datum:Temp:Abs-Feuchte:Windchill:Wind:
Aussen-T/F 301 09-10-2019 01:00:00 10.4 C 9.35 g/m*3 10.4 C 0 km/h
302 09-10-2019 01:05:00 10.4 C 9.35 g/m*3 10.4 C 1.6 km/h
303 09-10-2019 01:10:00 10.4 C 9.35 g/m*3 10.4 C 0 km/h
304 09-10-2019 01:15:00 10.4 C 9.35 g/m*3 10.4 C 0 km/h
305 09-10-2019 01:20:00 10.4 C 9.35 g/m*3 10.4 C 0 km/h
306 09-10-2019 01:25:00 10.3 C 9.29 g/m*3 10.3 C 0 km/h
307 09-10-2019 01:30:00 10.3 C 9.29 g/m*3 10.3 C 0 km/h
308 09-10-2019 01:35:00 10.3 C 9.29 g/m*3 10.3 C 0 km/h
309 09-10-2019 01:40:00 10.3 C 9.29 g/m*3 10.3 C 0 km/h
310 09-10-2019 01:45:00 10.3 C 9.29 g/m*3 10.3 C 0 km/h
311 09-10-2019 01:50:00 10.3 C 9.29 g/m*3 10.3 C 0 km/h
312 09-10-2019 01:55:00 10.3 C 9.29 g/m*3 10.3 C 0 km/h
313 09-10-2019 02:00:00 10.3 C 9.29 g/m*3 10.3 C 0 km/h
314 09-10-2019 02:05:00 10.3 C 9.29 g/m*3 10.3 C 4.8 km/h
315 09-10-2019 02:10:00 10.3 C 9.29 g/m*3 10.3 C 4.8 km/h
316 09-10-2019 02:15:00 10.4 C 9.35 g/m*3 10.4 C 1.6 km/h
317 09-10-2019 02:20:00 10.4 C 9.35 g/m*3 10.4 C 1.6 km/h
318 09-10-2019 02:25:00 10.4 C 9.35 g/m*3 10.4 C 0 km/h
319 09-10-2019 02:30:00 10.3 C 9.29 g/m*3 10.3 C 1.6 km/h
320 09-10-2019 02:35:00 10.3 C 9.29 g/m*3 10.3 C 0 km/h
321 09-10-2019 02:40:00 10.3 C 9.29 g/m*3 10.3 C 0 km/h
322 09-10-2019 02:45:00 10.3 C 9.29 g/m*3 10.3 C 0 km/h
323 09-10-2019 02:50:00 10.4 C 9.35 g/m*3 10.4 C 0 km/h
324 09-10-2019 02:55:00 10.5 C 9.5 g/m*3 10.5 C 0 km/h
325 09-10-2019 03:00:00 10.6 C 9.57 g/m*3 10.6 C 0 km/h
Sensor: Nr:Datum:Temp:Abs-Feuchte:Windchill:Wind:
Aussen-T/F 326 09-10-2019 03:05:00 10.7 C 9.63 g/m*3 10.7 C 0 km/h
327 09-10-2019 03:10:00 10.8 C 9.69 g/m*3 10.8 C 0 km/h
328 09-10-2019 03:15:00 10.8 C 9.59 g/m*3 10.8 C 0 km/h
329 09-10-2019 03:20:00 10.8 C 9.59 g/m*3 10.29 C 6.4 km/h
330 09-10-2019 03:25:00 10.7 C 9.53 g/m*3 10.7 C 0 km/h
331 09-10-2019 03:30:00 10.6 C 9.47 g/m*3 10.6 C 0 km/h
332 09-10-2019 03:35:00 10.4 C 9.35 g/m*3 10.4 C 0 km/h
333 09-10-2019 03:40:00 10.3 C 9.29 g/m*3 10.3 C 1.6 km/h
334 09-10-2019 03:45:00 10.4 C 9.35 g/m*3 9.16 C 9.7 km/h
335 09-10-2019 03:50:00 10.6 C 9.57 g/m*3 9.14 C 11.3 km/h
336 09-10-2019 03:55:00 10.8 C 9.69 g/m*3 9.38 C 11.3 km/h
337 09-10-2019 04:00:00 11 C 9.81 g/m*3 9.88 C 9.7 km/h
338 09-10-2019 04:05:00 11.1 C 9.87 g/m*3 11.1 C 9.7 km/h
339 09-10-2019 04:10:00 11.1 C 9.77 g/m*3 11.1 C 8.1 km/h
340 09-10-2019 04:15:00 11.1 C 9.77 g/m*3 11.1 C 3.2 km/h
341 09-10-2019 04:20:00 11.1 C 9.77 g/m*3 11.1 C 4.8 km/h
342 09-10-2019 04:25:00 11 C 9.71 g/m*3 11 C 3.2 km/h
343 09-10-2019 04:30:00 10.9 C 9.65 g/m*3 10.9 C 3.2 km/h
344 09-10-2019 04:35:00 10.9 C 9.65 g/m*3 10.04 C 8.1 km/h
345 09-10-2019 04:40:00 10.9 C 9.65 g/m*3 10.9 C 3.2 km/h
346 09-10-2019 04:45:00 10.9 C 9.65 g/m*3 10.9 C 4.8 km/h
347 09-10-2019 04:50:00 10.9 C 9.65 g/m*3 10.9 C 4.8 km/h
348 09-10-2019 04:55:00 10.9 C 9.65 g/m*3 10.9 C 1.6 km/h
349 09-10-2019 05:00:00 10.8 C 9.59 g/m*3 10.8 C 1.6 km/h
350 09-10-2019 05:05:00 10.7 C 9.53 g/m*3 10.7 C 0 km/h
Sensor: Nr:Datum:Temp:Abs-Feuchte:Windchill:Wind:
Aussen-T/F 351 09-10-2019 05:10:00 10.7 C 9.53 g/m*3 9.81 C 8.1 km/h
352 09-10-2019 05:15:00 10.8 C 9.59 g/m*3 10.8 C 4.8 km/h
353 09-10-2019 05:20:00 10.7 C 9.53 g/m*3 10.7 C 4.8 km/h
354 09-10-2019 05:25:00 10.7 C 9.53 g/m*3 10.7 C 3.2 km/h
355 09-10-2019 05:30:00 10.7 C 9.53 g/m*3 9.52 C 9.7 km/h
356 09-10-2019 05:35:00 10.8 C 9.59 g/m*3 10.29 C 6.4 km/h
357 09-10-2019 05:40:00 10.8 C 9.59 g/m*3 10.8 C 4.8 km/h
358 09-10-2019 05:45:00 10.9 C 9.65 g/m*3 10.9 C 4.8 km/h
359 09-10-2019 05:50:00 10.9 C 9.65 g/m*3 10.04 C 8.1 km/h
360 09-10-2019 05:55:00 11 C 9.71 g/m*3 10.52 C 6.4 km/h
361 09-10-2019 06:00:00 11 C 9.71 g/m*3 11 C 4.8 km/h
362 09-10-2019 06:05:00 10.9 C 9.65 g/m*3 9.51 C 11.3 km/h
363 09-10-2019 06:10:00 10.9 C 9.65 g/m*3 10.9 C 4.8 km/h
364 09-10-2019 06:15:00 10.9 C 9.65 g/m*3 10.41 C 6.4 km/h
365 09-10-2019 06:20:00 11 C 9.71 g/m*3 10.52 C 6.4 km/h
366 09-10-2019 06:25:00 11 C 9.71 g/m*3 11 C 4.8 km/h
367 09-10-2019 06:30:00 10.9 C 9.65 g/m*3 10.9 C 1.6 km/h
368 09-10-2019 06:35:00 10.9 C 9.65 g/m*3 10.41 C 6.4 km/h
369 09-10-2019 06:40:00 10.9 C 9.65 g/m*3 9.76 C 9.7 km/h
370 09-10-2019 06:45:00 10.9 C 9.65 g/m*3 10.41 C 6.4 km/h
371 09-10-2019 06:50:00 10.9 C 9.65 g/m*3 9.28 C 12.9 km/h
372 09-10-2019 06:55:00 10.9 C 9.65 g/m*3 10.9 C 4.8 km/h
373 09-10-2019 07:00:00 10.8 C 9.49 g/m*3 10.8 C 3.2 km/h
374 09-10-2019 07:05:00 10.8 C 9.49 g/m*3 10.29 C 6.4 km/h
375 09-10-2019 07:10:00 10.7 C 9.53 g/m*3 10.7 C 3.2 km/h
Sensor: Nr:Datum:Temp:Abs-Feuchte:Windchill:Wind:
Aussen-T/F 376 09-10-2019 07:15:00 10.7 C 9.43 g/m*3 10.18 C 6.4 km/h
377 09-10-2019 07:20:00 10.7 C 9.43 g/m*3 10.7 C 1.6 km/h
378 09-10-2019 07:25:00 10.6 C 9.37 g/m*3 10.6 C 1.6 km/h
379 09-10-2019 07:30:00 10.5 C 9.31 g/m*3 10.5 C 3.2 km/h
380 09-10-2019 07:35:00 10.5 C 9.31 g/m*3 9.57 C 8.1 km/h
381 09-10-2019 07:40:00 10.6 C 9.37 g/m*3 10.06 C 6.4 km/h
382 09-10-2019 07:45:00 10.6 C 9.37 g/m*3 10.6 C 4.8 km/h
383 09-10-2019 07:50:00 10.6 C 9.37 g/m*3 10.6 C 3.2 km/h
384 09-10-2019 07:55:00 10.6 C 9.37 g/m*3 10.06 C 6.4 km/h
385 09-10-2019 08:00:00 10.7 C 9.43 g/m*3 10.18 C 6.4 km/h
386 09-10-2019 08:05:00 10.6 C 9.37 g/m*3 10.6 C 3.2 km/h
387 09-10-2019 08:10:00 10.7 C 9.43 g/m*3 10.7 C 4.8 km/h
388 09-10-2019 08:15:00 10.7 C 9.43 g/m*3 10.7 C 3.2 km/h
389 09-10-2019 08:20:00 10.7 C 9.43 g/m*3 10.7 C 4.8 km/h
390 09-10-2019 08:25:00 10.7 C 9.43 g/m*3 10.7 C 1.6 km/h
391 09-10-2019 08:30:00 10.7 C 9.43 g/m*3 10.7 C 4.8 km/h
392 09-10-2019 08:35:00 10.7 C 9.53 g/m*3 10.7 C 1.6 km/h
393 09-10-2019 08:40:00 10.8 C 9.59 g/m*3 9.64 C 9.7 km/h
394 09-10-2019 08:45:00 10.8 C 9.59 g/m*3 10.8 C 3.2 km/h
395 09-10-2019 08:50:00 10.8 C 9.59 g/m*3 9.93 C 8.1 km/h
396 09-10-2019 08:55:00 10.9 C 9.55 g/m*3 10.04 C 8.1 km/h
397 09-10-2019 09:00:00 10.9 C 9.65 g/m*3 10.9 C 1.6 km/h
398 09-10-2019 09:05:00 11 C 9.61 g/m*3 10.52 C 6.4 km/h
399 09-10-2019 09:10:00 11 C 9.61 g/m*3 11 C 3.2 km/h
400 09-10-2019 09:15:00 11 C 9.61 g/m*3 11 C 0 km/h
Sensor: Nr:Datum:Temp:Abs-Feuchte:Windchill:Wind:
Aussen-T/F 401 09-10-2019 09:20:00 11 C 9.61 g/m*3 11 C 1.6 km/h
402 09-10-2019 09:25:00 11.1 C 9.67 g/m*3 11.1 C 3.2 km/h
403 09-10-2019 09:30:00 11.1 C 9.67 g/m*3 11.1 C 4.8 km/h
404 09-10-2019 09:35:00 11.2 C 9.73 g/m*3 11.2 C 4.8 km/h
405 09-10-2019 09:40:00 11.3 C 9.89 g/m*3 11.3 C 8.1 km/h
406 09-10-2019 09:45:00 11.5 C 10.02 g/m*3 11.5 C 11.3 km/h
407 09-10-2019 09:50:00 11.6 C 9.98 g/m*3 11.6 C 9.7 km/h
408 09-10-2019 09:55:00 11.7 C 10.04 g/m*3 11.7 C 9.7 km/h
409 09-10-2019 10:00:00 11.8 C 10 g/m*3 11.8 C 9.7 km/h
410 09-10-2019 10:05:00 11.9 C 9.96 g/m*3 11.9 C 8.1 km/h
411 09-10-2019 10:10:00 12.1 C 9.97 g/m*3 12.1 C 6.4 km/h
412 09-10-2019 10:15:00 12.2 C 10.14 g/m*3 12.2 C 1.6 km/h
413 09-10-2019 10:20:00 12.3 C 10.21 g/m*3 12.3 C 6.4 km/h
414 09-10-2019 10:25:00 12.5 C 10.22 g/m*3 12.5 C 8.1 km/h
415 09-10-2019 10:30:00 12.7 C 10.35 g/m*3 12.7 C 6.4 km/h
416 09-10-2019 10:35:00 12.8 C 10.19 g/m*3 12.8 C 9.7 km/h
417 09-10-2019 10:40:00 12.9 C 10.26 g/m*3 12.9 C 4.8 km/h
418 09-10-2019 10:45:00 13 C 10.21 g/m*3 13 C 12.9 km/h
419 09-10-2019 10:50:00 13.2 C 10.45 g/m*3 13.2 C 3.2 km/h
420 09-10-2019 10:55:00 13.2 C 10.33 g/m*3 13.2 C 11.3 km/h
421 09-10-2019 11:00:00 13.3 C 10.4 g/m*3 13.3 C 4.8 km/h
422 09-10-2019 11:05:00 13.3 C 10.28 g/m*3 13.3 C 6.4 km/h
423 09-10-2019 11:10:00 13.3 C 10.17 g/m*3 13.3 C 6.4 km/h
424 09-10-2019 11:15:00 13.4 C 10.35 g/m*3 13.4 C 3.2 km/h
425 09-10-2019 11:20:00 13.4 C 10.35 g/m*3 13.4 C 3.2 km/h
Sensor: Nr:Datum:Temp:Abs-Feuchte:Windchill:Wind:
Aussen-T/F 426 09-10-2019 11:25:00 13.4 C 10.35 g/m*3 13.4 C 0 km/h
427 09-10-2019 11:30:00 13.6 C 10.59 g/m*3 13.6 C 3.2 km/h
428 09-10-2019 11:35:00 13.6 C 10.36 g/m*3 13.6 C 6.4 km/h
429 09-10-2019 11:40:00 13.7 C 10.54 g/m*3 13.7 C 1.6 km/h
430 09-10-2019 11:45:00 13.8 C 10.48 g/m*3 13.8 C 4.8 km/h
431 09-10-2019 11:50:00 13.9 C 10.55 g/m*3 13.9 C 1.6 km/h
432 09-10-2019 11:55:00 14 C 10.74 g/m*3 14 C 0 km/h
433 09-10-2019 12:00:00 14 C 10.61 g/m*3 14 C 1.6 km/h
434 09-10-2019 12:05:00 14.1 C 10.56 g/m*3 14.1 C 8.1 km/h
435 09-10-2019 12:10:00 14.1 C 10.68 g/m*3 14.1 C 6.4 km/h
436 09-10-2019 12:15:00 14.1 C 10.68 g/m*3 14.1 C 4.8 km/h
437 09-10-2019 12:20:00 14 C 10.86 g/m*3 14 C 4.8 km/h
438 09-10-2019 12:25:00 13.8 C 10.6 g/m*3 13.8 C 4.8 km/h
439 09-10-2019 12:30:00 13.8 C 10.6 g/m*3 13.8 C 1.6 km/h
440 09-10-2019 12:35:00 13.9 C 10.79 g/m*3 13.9 C 9.7 km/h
441 09-10-2019 12:40:00 13.9 C 10.55 g/m*3 13.9 C 9.7 km/h
442 09-10-2019 12:45:00 13.9 C 10.67 g/m*3 13.9 C 4.8 km/h
443 09-10-2019 12:50:00 13.7 C 10.54 g/m*3 13.7 C 6.4 km/h
444 09-10-2019 12:55:00 13.6 C 10.59 g/m*3 13.6 C 0 km/h
445 09-10-2019 13:00:00 13.6 C 10.71 g/m*3 13.6 C 0 km/h
446 09-10-2019 13:05:00 13.6 C 10.71 g/m*3 13.6 C 0 km/h
447 09-10-2019 13:10:00 13.4 C 10.58 g/m*3 13.4 C 0 km/h
448 09-10-2019 13:15:00 13.4 C 10.69 g/m*3 13.4 C 0 km/h
449 09-10-2019 13:20:00 13.4 C 10.69 g/m*3 13.4 C 0 km/h
450 09-10-2019 13:25:00 13.4 C 10.81 g/m*3 13.4 C 1.6 km/h
Sensor: Nr:Datum:Temp:Abs-Feuchte:Windchill:Wind:
Aussen-T/F 451 09-10-2019 13:30:00 13.6 C 10.95 g/m*3 13.6 C 0 km/h
452 09-10-2019 13:35:00 13.6 C 10.95 g/m*3 13.6 C 1.6 km/h
453 09-10-2019 13:40:00 13.7 C 11.13 g/m*3 13.7 C 0 km/h
454 09-10-2019 13:45:00 13.8 C 11.08 g/m*3 13.8 C 1.6 km/h
455 09-10-2019 13:50:00 13.8 C 11.08 g/m*3 13.8 C 1.6 km/h
456 09-10-2019 13:55:00 13.8 C 11.08 g/m*3 13.8 C 9.7 km/h
457 09-10-2019 14:00:00 13.7 C 10.89 g/m*3 13.7 C 1.6 km/h
458 09-10-2019 14:05:00 13.6 C 10.83 g/m*3 13.6 C 4.8 km/h
459 09-10-2019 14:10:00 13.3 C 10.51 g/m*3 13.3 C 3.2 km/h
460 09-10-2019 14:15:00 13.2 C 10.45 g/m*3 13.2 C 4.8 km/h
461 09-10-2019 14:20:00 13.1 C 10.5 g/m*3 13.1 C 1.6 km/h
462 09-10-2019 14:25:00 12.9 C 10.37 g/m*3 12.9 C 1.6 km/h
463 09-10-2019 14:30:00 12.8 C 10.42 g/m*3 12.8 C 0 km/h
464 09-10-2019 14:35:00 12.7 C 10.35 g/m*3 12.7 C 9.7 km/h
465 09-10-2019 14:40:00 12.6 C 10.29 g/m*3 12.6 C 6.4 km/h
466 09-10-2019 14:45:00 12.5 C 10.22 g/m*3 12.5 C 4.8 km/h
467 09-10-2019 14:50:00 12.4 C 10.16 g/m*3 12.4 C 3.2 km/h
468 09-10-2019 14:55:00 12.3 C 10.21 g/m*3 12.3 C 3.2 km/h
469 09-10-2019 15:00:00 12.2 C 10.04 g/m*3 12.2 C 8.1 km/h
470 09-10-2019 15:05:00 12.2 C 10.14 g/m*3 12.2 C 4.8 km/h
471 09-10-2019 15:10:00 12.1 C 9.97 g/m*3 12.1 C 12.9 km/h
472 09-10-2019 15:15:00 12.2 C 10.14 g/m*3 12.2 C 8.1 km/h
473 09-10-2019 15:20:00 12.2 C 10.14 g/m*3 12.2 C 8.1 km/h
474 09-10-2019 15:25:00 12.2 C 10.04 g/m*3 12.2 C 14.5 km/h
475 09-10-2019 15:30:00 12.3 C 10.1 g/m*3 12.3 C 9.7 km/h
Sensor: Nr:Datum:Temp:Abs-Feuchte:Windchill:Wind:
Aussen-T/F 476 09-10-2019 15:35:00 12.3 C 10.1 g/m*3 12.3 C 9.7 km/h
477 09-10-2019 15:40:00 12.4 C 10.16 g/m*3 12.4 C 9.7 km/h
478 09-10-2019 15:45:00 12.4 C 10.05 g/m*3 12.4 C 6.4 km/h
479 09-10-2019 15:50:00 12.4 C 10.05 g/m*3 12.4 C 8.1 km/h
480 09-10-2019 15:55:00 12.5 C 10.11 g/m*3 12.5 C 8.1 km/h
481 09-10-2019 16:00:00 12.5 C 10 g/m*3 12.5 C 11.3 km/h
482 09-10-2019 16:05:00 12.6 C 10.07 g/m*3 12.6 C 11.3 km/h
483 09-10-2019 16:10:00 12.7 C 10.02 g/m*3 12.7 C 16.1 km/h
484 09-10-2019 16:15:00 12.8 C 10.19 g/m*3 12.8 C 4.8 km/h
485 09-10-2019 16:20:00 12.9 C 10.37 g/m*3 12.9 C 3.2 km/h
486 09-10-2019 16:25:00 12.8 C 10.08 g/m*3 12.8 C 8.1 km/h
487 09-10-2019 16:30:00 12.9 C 10.03 g/m*3 12.9 C 12.9 km/h
488 09-10-2019 16:35:00 12.9 C 10.03 g/m*3 12.9 C 8.1 km/h
489 09-10-2019 16:40:00 12.8 C 9.86 g/m*3 12.8 C 9.7 km/h
490 09-10-2019 16:45:00 12.8 C 9.86 g/m*3 12.8 C 11.3 km/h
491 09-10-2019 16:50:00 12.8 C 9.86 g/m*3 12.8 C 6.4 km/h
492 09-10-2019 16:55:00 12.8 C 9.86 g/m*3 12.8 C 3.2 km/h
493 09-10-2019 17:00:00 12.8 C 9.74 g/m*3 12.8 C 16.1 km/h
494 09-10-2019 17:05:00 12.8 C 9.74 g/m*3 12.8 C 8.1 km/h
495 09-10-2019 17:10:00 12.9 C 10.03 g/m*3 12.9 C 1.6 km/h
496 09-10-2019 17:15:00 12.9 C 9.81 g/m*3 12.9 C 8.1 km/h
497 09-10-2019 17:20:00 12.8 C 9.74 g/m*3 12.8 C 11.3 km/h
498 09-10-2019 17:25:00 12.9 C 9.81 g/m*3 12.9 C 11.3 km/h
499 09-10-2019 17:30:00 13.1 C 10.04 g/m*3 13.1 C 6.4 km/h
500 09-10-2019 17:35:00 13.2 C 9.99 g/m*3 13.2 C 6.4 km/h
Sensor: Nr:Datum:Temp:Abs-Feuchte:Windchill:Wind:
Aussen-T/F 501 09-10-2019 17:40:00 13.2 C 9.76 g/m*3 13.2 C 14.5 km/h
502 09-10-2019 17:45:00 13.1 C 9.7 g/m*3 13.1 C 12.9 km/h
503 09-10-2019 17:50:00 13.1 C 9.7 g/m*3 13.1 C 11.3 km/h
504 09-10-2019 17:55:00 12.9 C 9.69 g/m*3 12.9 C 14.5 km/h
505 09-10-2019 18:00:00 12.9 C 9.81 g/m*3 12.9 C 3.2 km/h
506 09-10-2019 18:05:00 12.8 C 9.63 g/m*3 12.8 C 14.5 km/h
507 09-10-2019 18:10:00 12.8 C 9.63 g/m*3 12.8 C 14.5 km/h
508 09-10-2019 18:15:00 12.8 C 9.63 g/m*3 12.8 C 8.1 km/h
509 09-10-2019 18:20:00 12.8 C 9.63 g/m*3 12.8 C 12.9 km/h
510 09-10-2019 18:25:00 12.6 C 9.51 g/m*3 12.6 C 12.9 km/h
511 09-10-2019 18:30:00 12.4 C 9.4 g/m*3 12.4 C 9.7 km/h
512 09-10-2019 18:35:00 12.3 C 9.45 g/m*3 12.3 C 14.5 km/h
513 09-10-2019 18:40:00 12.3 C 9.45 g/m*3 12.3 C 14.5 km/h
514 09-10-2019 18:45:00 12.2 C 9.39 g/m*3 12.2 C 14.5 km/h
515 09-10-2019 18:50:00 12.2 C 9.39 g/m*3 12.2 C 12.9 km/h
516 09-10-2019 18:55:00 12.2 C 9.6 g/m*3 12.2 C 3.2 km/h
517 09-10-2019 19:00:00 12.1 C 9.44 g/m*3 12.1 C 16.1 km/h
518 09-10-2019 19:05:00 12.1 C 9.54 g/m*3 12.1 C 11.3 km/h
519 09-10-2019 19:10:00 12.1 C 9.44 g/m*3 12.1 C 6.4 km/h
520 09-10-2019 19:15:00 12.1 C 9.54 g/m*3 12.1 C 8.1 km/h
521 09-10-2019 19:20:00 12 C 9.48 g/m*3 12 C 12.9 km/h
522 09-10-2019 19:25:00 11.9 C 9.43 g/m*3 11.9 C 12.9 km/h
523 09-10-2019 19:30:00 11.9 C 9.43 g/m*3 11.9 C 11.3 km/h
524 09-10-2019 19:35:00 11.8 C 9.37 g/m*3 11.8 C 11.3 km/h
525 09-10-2019 19:40:00 11.6 C 9.25 g/m*3 11.6 C 8.1 km/h
Sensor: Nr:Datum:Temp:Abs-Feuchte:Windchill:Wind:
Aussen-T/F 526 09-10-2019 19:45:00 11.6 C 9.25 g/m*3 11.6 C 8.1 km/h
527 09-10-2019 19:50:00 11.5 C 9.19 g/m*3 11.5 C 4.8 km/h
528 09-10-2019 19:55:00 11.4 C 9.14 g/m*3 11.4 C 4.8 km/h
529 09-10-2019 20:00:00 11.4 C 9.14 g/m*3 11.4 C 9.7 km/h
530 09-10-2019 20:05:00 11.4 C 9.14 g/m*3 11.4 C 4.8 km/h
531 09-10-2019 20:10:00 11.4 C 9.14 g/m*3 11.4 C 1.6 km/h
532 09-10-2019 20:15:00 11.3 C 9.08 g/m*3 11.3 C 14.5 km/h
533 09-10-2019 20:20:00 11.3 C 9.08 g/m*3 11.3 C 6.4 km/h
534 09-10-2019 20:25:00 11.3 C 9.08 g/m*3 11.3 C 3.2 km/h
535 09-10-2019 20:30:00 11.2 C 9.02 g/m*3 11.2 C 4.8 km/h
536 09-10-2019 20:35:00 11.1 C 9.07 g/m*3 11.1 C 8.1 km/h
537 09-10-2019 20:40:00 11.1 C 9.07 g/m*3 11.1 C 1.6 km/h
538 09-10-2019 20:45:00 11 C 9.01 g/m*3 10.52 C 6.4 km/h
539 09-10-2019 20:50:00 11 C 9.11 g/m*3 10.16 C 8.1 km/h
540 09-10-2019 20:55:00 11 C 9.11 g/m*3 10.52 C 6.4 km/h
541 09-10-2019 21:00:00 11 C 9.11 g/m*3 10.16 C 8.1 km/h
542 09-10-2019 21:05:00 11.1 C 9.07 g/m*3 11.1 C 11.3 km/h
543 09-10-2019 21:10:00 11.1 C 9.07 g/m*3 11.1 C 6.4 km/h
544 09-10-2019 21:15:00 11.1 C 9.07 g/m*3 11.1 C 11.3 km/h
545 09-10-2019 21:20:00 11.1 C 9.07 g/m*3 11.1 C 1.6 km/h
546 09-10-2019 21:25:00 11.1 C 9.07 g/m*3 11.1 C 3.2 km/h
547 09-10-2019 21:30:00 11 C 9.11 g/m*3 11 C 3.2 km/h
548 09-10-2019 21:35:00 11 C 9.11 g/m*3 10.16 C 8.1 km/h
549 09-10-2019 21:40:00 11 C 9.11 g/m*3 10.16 C 8.1 km/h
550 09-10-2019 21:45:00 11 C 9.11 g/m*3 9.4 C 12.9 km/h
Sensor: Nr:Datum:Temp:Abs-Feuchte:Windchill:Wind:
Aussen-T/F 551 09-10-2019 21:50:00 11.1 C 8.96 g/m*3 11.1 C 11.3 km/h
552 09-10-2019 21:55:00 11.2 C 9.02 g/m*3 11.2 C 12.9 km/h
553 09-10-2019 22:00:00 11.2 C 8.82 g/m*3 11.2 C 16.1 km/h
554 09-10-2019 22:05:00 11.2 C 8.82 g/m*3 11.2 C 12.9 km/h
555 09-10-2019 22:10:00 11.2 C 8.82 g/m*3 11.2 C 14.5 km/h
556 09-10-2019 22:15:00 11.2 C 8.72 g/m*3 11.2 C 19.3 km/h
557 09-10-2019 22:20:00 11.2 C 8.72 g/m*3 11.2 C 19.3 km/h
558 09-10-2019 22:25:00 11.1 C 8.66 g/m*3 11.1 C 11.3 km/h
559 09-10-2019 22:30:00 11.1 C 8.66 g/m*3 11.1 C 11.3 km/h
560 09-10-2019 22:35:00 11.1 C 8.66 g/m*3 11.1 C 19.3 km/h
561 09-10-2019 22:40:00 11.1 C 8.66 g/m*3 11.1 C 9.7 km/h
562 09-10-2019 22:45:00 11 C 8.61 g/m*3 9.63 C 11.3 km/h
563 09-10-2019 22:50:00 10.9 C 8.55 g/m*3 9.28 C 12.9 km/h
564 09-10-2019 22:55:00 11 C 8.61 g/m*3 9.4 C 12.9 km/h
565 09-10-2019 23:00:00 10.9 C 8.55 g/m*3 9.51 C 11.3 km/h
566 09-10-2019 23:05:00 10.9 C 8.55 g/m*3 10.04 C 8.1 km/h
567 09-10-2019 23:10:00 10.8 C 8.5 g/m*3 9.38 C 11.3 km/h
568 09-10-2019 23:15:00 10.8 C 8.6 g/m*3 9.16 C 12.9 km/h
569 09-10-2019 23:20:00 10.8 C 8.6 g/m*3 9.38 C 11.3 km/h
570 09-10-2019 23:25:00 10.8 C 8.5 g/m*3 8.96 C 14.5 km/h
571 09-10-2019 23:30:00 10.8 C 8.5 g/m*3 9.38 C 11.3 km/h
572 09-10-2019 23:35:00 10.8 C 8.5 g/m*3 9.16 C 12.9 km/h
573 09-10-2019 23:40:00 10.8 C 8.5 g/m*3 9.64 C 9.7 km/h
574 09-10-2019 23:45:00 10.8 C 8.5 g/m*3 9.93 C 8.1 km/h
575 09-10-2019 23:50:00 10.7 C 8.55 g/m*3 9.04 C 12.9 km/h
Sensor: Nr:Datum:Temp:Abs-Feuchte:Windchill:Wind:
Aussen-T/F 576 09-10-2019 23:55:00 10.7 C 8.55 g/m*3 8.65 C 16.1 km/h
577 10-10-2019 00:00:00 10.6 C 8.49 g/m*3 10.06 C 6.4 km/h
578 10-10-2019 00:05:00 10.6 C 8.49 g/m*3 9.14 C 11.3 km/h
579 10-10-2019 00:10:00 10.5 C 8.44 g/m*3 8.8 C 12.9 km/h
580 10-10-2019 00:15:00 10.4 C 8.38 g/m*3 9.16 C 9.7 km/h
581 10-10-2019 00:20:00 10.4 C 8.48 g/m*3 8.47 C 14.5 km/h
582 10-10-2019 00:25:00 10.4 C 8.48 g/m*3 8.9 C 11.3 km/h
583 10-10-2019 00:30:00 10.4 C 8.48 g/m*3 8.47 C 14.5 km/h
584 10-10-2019 00:35:00 10.3 C 8.43 g/m*3 8.16 C 16.1 km/h
585 10-10-2019 00:40:00 10.3 C 8.43 g/m*3 8.16 C 16.1 km/h
586 10-10-2019 00:45:00 10.2 C 8.37 g/m*3 8.03 C 16.1 km/h
587 10-10-2019 00:50:00 10.2 C 8.47 g/m*3 8.22 C 14.5 km/h
588 10-10-2019 00:55:00 10.2 C 8.47 g/m*3 8.66 C 11.3 km/h
589 10-10-2019 01:00:00 10.2 C 8.47 g/m*3 7.86 C 17.7 km/h
590 10-10-2019 01:05:00 10.2 C 8.47 g/m*3 9.6 C 6.4 km/h
591 10-10-2019 01:10:00 10.2 C 8.47 g/m*3 8.22 C 14.5 km/h
592 10-10-2019 01:15:00 10.2 C 8.47 g/m*3 10.2 C 4.8 km/h
593 10-10-2019 01:20:00 10.3 C 8.52 g/m*3 8.78 C 11.3 km/h
594 10-10-2019 01:25:00 10.3 C 8.52 g/m*3 10.3 C 4.8 km/h
595 10-10-2019 01:30:00 10.2 C 8.47 g/m*3 10.2 C 1.6 km/h
596 10-10-2019 01:35:00 10.2 C 8.56 g/m*3 10.2 C 1.6 km/h
597 10-10-2019 01:40:00 10.1 C 8.51 g/m*3 10.1 C 3.2 km/h
598 10-10-2019 01:45:00 10.1 C 8.51 g/m*3 10.1 C 3.2 km/h
599 10-10-2019 01:50:00 10 C 8.46 g/m*3 10 C 1.6 km/h
600 10-10-2019 01:55:00 9.9 C 8.5 g/m*3 9.9 C 3.2 km/h
Sensor: Nr:Datum:Temp:Abs-Feuchte:Windchill:Wind:
Aussen-T/F 601 10-10-2019 02:00:00 9.9 C 8.5 g/m*3 9.9 C 1.6 km/h
602 10-10-2019 02:05:00 9.9 C 8.5 g/m*3 9.9 C 4.8 km/h
603 10-10-2019 02:10:00 10.1 C 8.61 g/m*3 10.1 C 4.8 km/h
604 10-10-2019 02:15:00 10.2 C 8.66 g/m*3 10.2 C 3.2 km/h
605 10-10-2019 02:20:00 10.3 C 8.71 g/m*3 10.3 C 1.6 km/h
606 10-10-2019 02:25:00 10.4 C 8.67 g/m*3 9.16 C 9.7 km/h
607 10-10-2019 02:30:00 10.5 C 8.73 g/m*3 10.5 C 4.8 km/h
608 10-10-2019 02:35:00 10.6 C 8.78 g/m*3 10.6 C 1.6 km/h
609 10-10-2019 02:40:00 10.6 C 8.78 g/m*3 10.06 C 6.4 km/h
610 10-10-2019 02:45:00 10.7 C 8.84 g/m*3 9.81 C 8.1 km/h
611 10-10-2019 02:50:00 10.7 C 8.84 g/m*3 10.7 C 3.2 km/h
612 10-10-2019 02:55:00 10.8 C 8.9 g/m*3 9.93 C 8.1 km/h
613 10-10-2019 03:00:00 10.8 C 8.9 g/m*3 10.29 C 6.4 km/h
614 10-10-2019 03:05:00 10.8 C 8.9 g/m*3 10.8 C 1.6 km/h
615 10-10-2019 03:10:00 10.8 C 8.9 g/m*3 10.8 C 4.8 km/h
616 10-10-2019 03:15:00 10.8 C 8.9 g/m*3 10.29 C 6.4 km/h
617 10-10-2019 03:20:00 10.8 C 8.99 g/m*3 10.8 C 3.2 km/h
618 10-10-2019 03:25:00 10.7 C 8.94 g/m*3 10.7 C 1.6 km/h
619 10-10-2019 03:30:00 10.7 C 8.94 g/m*3 9.52 C 9.7 km/h
620 10-10-2019 03:35:00 10.6 C 8.88 g/m*3 10.6 C 4.8 km/h
621 10-10-2019 03:40:00 10.6 C 8.98 g/m*3 10.6 C 1.6 km/h
622 10-10-2019 03:45:00 10.6 C 8.98 g/m*3 10.6 C 0 km/h
623 10-10-2019 03:50:00 10.5 C 8.92 g/m*3 9.02 C 11.3 km/h
624 10-10-2019 03:55:00 10.5 C 8.92 g/m*3 9.95 C 6.4 km/h
625 10-10-2019 04:00:00 10.5 C 8.92 g/m*3 9.57 C 8.1 km/h
Sensor: Nr:Datum:Temp:Abs-Feuchte:Windchill:Wind:
Aussen-T/F 626 10-10-2019 04:05:00 10.5 C 8.92 g/m*3 9.02 C 11.3 km/h
627 10-10-2019 04:10:00 10.5 C 8.92 g/m*3 8.59 C 14.5 km/h
628 10-10-2019 04:15:00 10.5 C 8.92 g/m*3 8.4 C 16.1 km/h
629 10-10-2019 04:20:00 10.6 C 8.88 g/m*3 9.14 C 11.3 km/h
630 10-10-2019 04:25:00 10.6 C 8.88 g/m*3 10.06 C 6.4 km/h
631 10-10-2019 04:30:00 10.6 C 8.98 g/m*3 9.14 C 11.3 km/h
632 10-10-2019 04:35:00 10.6 C 8.98 g/m*3 10.06 C 6.4 km/h
633 10-10-2019 04:40:00 10.6 C 8.98 g/m*3 10.6 C 4.8 km/h
634 10-10-2019 04:45:00 10.6 C 8.98 g/m*3 10.06 C 6.4 km/h
635 10-10-2019 04:50:00 10.6 C 8.98 g/m*3 10.6 C 1.6 km/h
636 10-10-2019 04:55:00 10.6 C 9.08 g/m*3 10.6 C 0 km/h
637 10-10-2019 05:00:00 10.6 C 9.08 g/m*3 10.6 C 1.6 km/h
638 10-10-2019 05:05:00 10.5 C 9.02 g/m*3 10.5 C 0 km/h
639 10-10-2019 05:10:00 10.4 C 8.96 g/m*3 10.4 C 3.2 km/h
640 10-10-2019 05:15:00 10.4 C 8.96 g/m*3 10.4 C 4.8 km/h
641 10-10-2019 05:20:00 10.3 C 8.91 g/m*3 10.3 C 4.8 km/h
642 10-10-2019 05:25:00 10.3 C 8.91 g/m*3 10.3 C 4.8 km/h
643 10-10-2019 05:30:00 10.4 C 9.06 g/m*3 10.4 C 1.6 km/h
644 10-10-2019 05:35:00 10.4 C 9.06 g/m*3 10.4 C 1.6 km/h
645 10-10-2019 05:40:00 10.4 C 9.06 g/m*3 10.4 C 0 km/h
646 10-10-2019 05:45:00 10.4 C 9.06 g/m*3 10.4 C 3.2 km/h
647 10-10-2019 05:50:00 10.4 C 9.06 g/m*3 9.83 C 6.4 km/h
648 10-10-2019 05:55:00 10.4 C 9.06 g/m*3 9.83 C 6.4 km/h
649 10-10-2019 06:00:00 10.4 C 9.06 g/m*3 10.4 C 3.2 km/h
650 10-10-2019 06:05:00 10.5 C 9.12 g/m*3 9.57 C 8.1 km/h
Sensor: Nr:Datum:Temp:Abs-Feuchte:Windchill:Wind:
Aussen-T/F 651 10-10-2019 06:10:00 10.5 C 9.02 g/m*3 10.5 C 4.8 km/h
652 10-10-2019 06:15:00 10.5 C 9.02 g/m*3 10.5 C 4.8 km/h
653 10-10-2019 06:20:00 10.5 C 9.02 g/m*3 9.95 C 6.4 km/h
654 10-10-2019 06:25:00 10.5 C 9.02 g/m*3 10.5 C 4.8 km/h
655 10-10-2019 06:30:00 10.5 C 9.12 g/m*3 9.57 C 8.1 km/h
656 10-10-2019 06:35:00 10.4 C 9.06 g/m*3 9.83 C 6.4 km/h
657 10-10-2019 06:40:00 10.4 C 9.06 g/m*3 10.4 C 1.6 km/h
658 10-10-2019 06:45:00 10.4 C 9.06 g/m*3 10.4 C 1.6 km/h
659 10-10-2019 06:50:00 10.4 C 9.06 g/m*3 9.83 C 6.4 km/h
660 10-10-2019 06:55:00 10.3 C 9 g/m*3 9.04 C 9.7 km/h
661 10-10-2019 07:00:00 10.3 C 9 g/m*3 9.04 C 9.7 km/h
662 10-10-2019 07:05:00 10.2 C 8.85 g/m*3 8.22 C 14.5 km/h
663 10-10-2019 07:10:00 10.2 C 8.95 g/m*3 10.2 C 1.6 km/h
664 10-10-2019 07:15:00 10.2 C 8.85 g/m*3 9.6 C 6.4 km/h
665 10-10-2019 07:20:00 10.2 C 8.85 g/m*3 10.2 C 3.2 km/h
666 10-10-2019 07:25:00 10.1 C 8.79 g/m*3 9.48 C 6.4 km/h
667 10-10-2019 07:30:00 10.1 C 8.89 g/m*3 10.1 C 1.6 km/h
668 10-10-2019 07:35:00 10.1 C 8.79 g/m*3 8.8 C 9.7 km/h
669 10-10-2019 07:40:00 10 C 8.74 g/m*3 8.99 C 8.1 km/h
670 10-10-2019 07:45:00 9.9 C 8.59 g/m*3 8.3 C 11.3 km/h
671 10-10-2019 07:50:00 9.9 C 8.59 g/m*3 9.9 C 4.8 km/h
672 10-10-2019 07:55:00 9.9 C 8.59 g/m*3 9.9 C 4.8 km/h
673 10-10-2019 08:00:00 9.8 C 8.63 g/m*3 9.8 C 4.8 km/h
674 10-10-2019 08:05:00 9.8 C 8.54 g/m*3 9.8 C 1.6 km/h
675 10-10-2019 08:10:00 9.8 C 8.63 g/m*3 9.8 C 4.8 km/h
Sensor: Nr:Datum:Temp:Abs-Feuchte:Windchill:Wind:
Aussen-T/F 676 10-10-2019 08:15:00 9.7 C 8.48 g/m*3 8.33 C 9.7 km/h
677 10-10-2019 08:20:00 9.7 C 8.48 g/m*3 7.82 C 12.9 km/h
678 10-10-2019 08:25:00 9.7 C 8.48 g/m*3 9.02 C 6.4 km/h
679 10-10-2019 08:30:00 9.7 C 8.48 g/m*3 8.33 C 9.7 km/h
680 10-10-2019 08:35:00 9.8 C 8.54 g/m*3 8.18 C 11.3 km/h
681 10-10-2019 08:40:00 9.8 C 8.54 g/m*3 9.8 C 4.8 km/h
682 10-10-2019 08:45:00 9.9 C 8.59 g/m*3 9.25 C 6.4 km/h
683 10-10-2019 08:50:00 10 C 8.64 g/m*3 9.37 C 6.4 km/h
684 10-10-2019 08:55:00 10.1 C 8.7 g/m*3 8.8 C 9.7 km/h
685 10-10-2019 09:00:00 10.3 C 8.71 g/m*3 9.34 C 8.1 km/h
686 10-10-2019 09:05:00 10.3 C 8.62 g/m*3 8.55 C 12.9 km/h
687 10-10-2019 09:10:00 10.4 C 8.67 g/m*3 8.9 C 11.3 km/h
688 10-10-2019 09:15:00 10.5 C 8.73 g/m*3 9.95 C 6.4 km/h
689 10-10-2019 09:20:00 10.6 C 8.78 g/m*3 10.06 C 6.4 km/h
690 10-10-2019 09:25:00 10.7 C 8.84 g/m*3 9.81 C 8.1 km/h
691 10-10-2019 09:30:00 10.7 C 8.84 g/m*3 9.81 C 8.1 km/h
692 10-10-2019 09:35:00 10.8 C 8.8 g/m*3 9.38 C 11.3 km/h
693 10-10-2019 09:40:00 10.8 C 8.8 g/m*3 10.29 C 6.4 km/h
694 10-10-2019 09:45:00 10.9 C 8.85 g/m*3 10.9 C 3.2 km/h
695 10-10-2019 09:50:00 11 C 8.81 g/m*3 9.02 C 16.1 km/h
696 10-10-2019 09:55:00 11.1 C 8.96 g/m*3 11.1 C 11.3 km/h
697 10-10-2019 10:00:00 11.1 C 8.86 g/m*3 11.1 C 9.7 km/h
698 10-10-2019 10:05:00 11.1 C 8.86 g/m*3 11.1 C 11.3 km/h
699 10-10-2019 10:10:00 11.1 C 8.76 g/m*3 11.1 C 12.9 km/h
700 10-10-2019 10:15:00 11.1 C 8.76 g/m*3 11.1 C 12.9 km/h
Sensor: Nr:Datum:Temp:Abs-Feuchte:Windchill:Wind:
Aussen-T/F 701 10-10-2019 10:20:00 11.2 C 8.82 g/m*3 11.2 C 16.1 km/h
702 10-10-2019 10:25:00 11.2 C 8.82 g/m*3 11.2 C 11.3 km/h
703 10-10-2019 10:30:00 11.2 C 8.82 g/m*3 11.2 C 16.1 km/h
704 10-10-2019 10:35:00 11.3 C 8.98 g/m*3 11.3 C 6.4 km/h
705 10-10-2019 10:40:00 11.4 C 8.93 g/m*3 11.4 C 12.9 km/h
706 10-10-2019 10:45:00 11.6 C 9.04 g/m*3 11.6 C 8.1 km/h
707 10-10-2019 10:50:00 11.6 C 8.94 g/m*3 11.6 C 11.3 km/h
708 10-10-2019 10:55:00 11.6 C 8.94 g/m*3 11.6 C 12.9 km/h
709 10-10-2019 11:00:00 11.7 C 8.89 g/m*3 11.7 C 12.9 km/h
710 10-10-2019 11:05:00 11.8 C 8.95 g/m*3 11.8 C 17.7 km/h
711 10-10-2019 11:10:00 11.9 C 9 g/m*3 11.9 C 17.7 km/h
712 10-10-2019 11:15:00 12 C 9.06 g/m*3 12 C 12.9 km/h
713 10-10-2019 11:20:00 12.2 C 9.17 g/m*3 12.2 C 11.3 km/h
714 10-10-2019 11:25:00 12.4 C 9.07 g/m*3 12.4 C 12.9 km/h
715 10-10-2019 11:30:00 12.6 C 9.18 g/m*3 12.6 C 16.1 km/h
716 10-10-2019 11:35:00 12.6 C 9.18 g/m*3 12.6 C 9.7 km/h
717 10-10-2019 11:40:00 12.7 C 9.24 g/m*3 12.7 C 11.3 km/h
718 10-10-2019 11:45:00 12.7 C 9.24 g/m*3 12.7 C 12.9 km/h
719 10-10-2019 11:50:00 12.7 C 9.35 g/m*3 12.7 C 12.9 km/h
720 10-10-2019 11:55:00 12.7 C 9.24 g/m*3 12.7 C 6.4 km/h
721 10-10-2019 12:00:00 12.7 C 9.13 g/m*3 12.7 C 12.9 km/h
722 10-10-2019 12:05:00 12.9 C 9.24 g/m*3 12.9 C 12.9 km/h
723 10-10-2019 12:10:00 13.2 C 9.3 g/m*3 13.2 C 17.7 km/h
724 10-10-2019 12:15:00 13.3 C 9.24 g/m*3 13.3 C 11.3 km/h
725 10-10-2019 12:20:00 13.3 C 9.13 g/m*3 13.3 C 16.1 km/h
Sensor: Nr:Datum:Temp:Abs-Feuchte:Windchill:Wind:
Aussen-T/F 726 10-10-2019 12:25:00 13.3 C 9.01 g/m*3 13.3 C 19.3 km/h
727 10-10-2019 12:30:00 13.4 C 9.07 g/m*3 13.4 C 16.1 km/h
728 10-10-2019 12:35:00 13.4 C 9.07 g/m*3 13.4 C 11.3 km/h
729 10-10-2019 12:40:00 13.6 C 9.18 g/m*3 13.6 C 12.9 km/h
730 10-10-2019 12:45:00 13.6 C 8.83 g/m*3 13.6 C 12.9 km/h
731 10-10-2019 12:50:00 13.7 C 8.88 g/m*3 13.7 C 12.9 km/h
732 10-10-2019 12:55:00 13.8 C 9.06 g/m*3 13.8 C 12.9 km/h
733 10-10-2019 13:00:00 13.9 C 9.11 g/m*3 13.9 C 11.3 km/h
734 10-10-2019 13:05:00 14.1 C 9.22 g/m*3 14.1 C 12.9 km/h
735 10-10-2019 13:10:00 14.2 C 8.91 g/m*3 14.2 C 20.9 km/h
736 10-10-2019 13:15:00 14.3 C 9.09 g/m*3 14.3 C 11.3 km/h
737 10-10-2019 13:20:00 14.3 C 8.72 g/m*3 14.3 C 20.9 km/h
738 10-10-2019 13:25:00 14.3 C 8.72 g/m*3 14.3 C 14.5 km/h
739 10-10-2019 13:30:00 14.4 C 8.78 g/m*3 14.4 C 17.7 km/h
740 10-10-2019 13:35:00 14.5 C 8.58 g/m*3 14.5 C 20.9 km/h
741 10-10-2019 13:40:00 14.5 C 8.33 g/m*3 14.5 C 20.9 km/h
742 10-10-2019 13:45:00 14.4 C 8.41 g/m*3 14.4 C 19.3 km/h
743 10-10-2019 13:50:00 14.3 C 8.48 g/m*3 14.3 C 14.5 km/h
744 10-10-2019 13:55:00 14.2 C 8.43 g/m*3 14.2 C 12.9 km/h
745 10-10-2019 14:00:00 14.3 C 8.48 g/m*3 14.3 C 16.1 km/h
746 10-10-2019 14:05:00 14.3 C 8.48 g/m*3 14.3 C 17.7 km/h
747 10-10-2019 14:10:00 14.4 C 9.15 g/m*3 14.4 C 6.4 km/h
748 10-10-2019 14:15:00 14.4 C 8.9 g/m*3 14.4 C 6.4 km/h
749 10-10-2019 14:20:00 14.6 C 9.01 g/m*3 14.6 C 14.5 km/h
750 10-10-2019 14:25:00 14.7 C 9.32 g/m*3 14.7 C 4.8 km/h
Sensor: Nr:Datum:Temp:Abs-Feuchte:Windchill:Wind:
Aussen-T/F 751 10-10-2019 14:30:00 14.6 C 9.01 g/m*3 14.6 C 12.9 km/h
752 10-10-2019 14:35:00 14.5 C 9.33 g/m*3 14.5 C 14.5 km/h
753 10-10-2019 14:40:00 14.4 C 9.15 g/m*3 14.4 C 16.1 km/h
754 10-10-2019 14:45:00 14.5 C 9.58 g/m*3 14.5 C 8.1 km/h
755 10-10-2019 14:50:00 14.8 C 9.63 g/m*3 14.8 C 14.5 km/h
756 10-10-2019 14:55:00 14.9 C 9.43 g/m*3 14.9 C 14.5 km/h
757 10-10-2019 15:00:00 15 C 9.49 g/m*3 15 C 12.9 km/h
758 10-10-2019 15:05:00 15 C 9.62 g/m*3 15 C 11.3 km/h
759 10-10-2019 15:10:00 15 C 9.36 g/m*3 15 C 11.3 km/h
760 10-10-2019 15:15:00 15 C 9.49 g/m*3 15 C 8.1 km/h
761 10-10-2019 15:20:00 15.2 C 9.22 g/m*3 15.2 C 20.9 km/h
762 10-10-2019 15:25:00 15.2 C 9.35 g/m*3 15.2 C 20.9 km/h
763 10-10-2019 15:30:00 15.2 C 9.22 g/m*3 15.2 C 14.5 km/h
764 10-10-2019 15:35:00 15.2 C 9.09 g/m*3 15.2 C 11.3 km/h
765 10-10-2019 15:40:00 15.2 C 9.35 g/m*3 15.2 C 12.9 km/h
766 10-10-2019 15:45:00 15.1 C 9.29 g/m*3 15.1 C 11.3 km/h
767 10-10-2019 15:50:00 15.1 C 9.29 g/m*3 15.1 C 9.7 km/h
768 10-10-2019 15:55:00 14.9 C 9.18 g/m*3 14.9 C 8.1 km/h
769 10-10-2019 16:00:00 15 C 9.23 g/m*3 15 C 8.1 km/h
770 10-10-2019 16:05:00 15.2 C 9.22 g/m*3 15.2 C 11.3 km/h
771 10-10-2019 16:10:00 15.5 C 9.25 g/m*3 15.5 C 11.3 km/h
772 10-10-2019 16:15:00 15.7 C 9.1 g/m*3 15.7 C 19.3 km/h
773 10-10-2019 16:20:00 15.6 C 9.04 g/m*3 15.6 C 12.9 km/h
774 10-10-2019 16:25:00 15.6 C 9.58 g/m*3 15.6 C 11.3 km/h
775 10-10-2019 16:30:00 15.7 C 9.37 g/m*3 15.7 C 8.1 km/h
Sensor: Nr:Datum:Temp:Abs-Feuchte:Windchill:Wind:
Aussen-T/F 776 10-10-2019 16:45:00 15.2 C 9.22 g/m*3 15.2 C 12.9 km/h
777 10-10-2019 16:55:00 14.9 C 9.81 g/m*3 14.9 C 12.9 km/h
778 10-10-2019 17:00:00 14.4 C 9.64 g/m*3 14.4 C 12.9 km/h
779 10-10-2019 17:05:00 14 C 9.53 g/m*3 14 C 14.5 km/h
780 10-10-2019 17:10:00 13.9 C 9.83 g/m*3 13.9 C 11.3 km/h
781 10-10-2019 17:15:00 13.9 C 9.71 g/m*3 13.9 C 9.7 km/h
782 10-10-2019 17:20:00 14 C 9.77 g/m*3 14 C 8.1 km/h
783 10-10-2019 17:25:00 13.9 C 9.83 g/m*3 13.9 C 4.8 km/h
784 10-10-2019 17:30:00 13.8 C 9.65 g/m*3 13.8 C 9.7 km/h
785 10-10-2019 17:35:00 13.7 C 9.59 g/m*3 13.7 C 12.9 km/h
786 10-10-2019 17:40:00 13.6 C 9.42 g/m*3 13.6 C 11.3 km/h
787 10-10-2019 17:45:00 13.6 C 9.3 g/m*3 13.6 C 11.3 km/h
788 10-10-2019 17:50:00 13.6 C 9.53 g/m*3 13.6 C 6.4 km/h
789 10-10-2019 17:55:00 13.6 C 9.65 g/m*3 13.6 C 3.2 km/h
790 10-10-2019 18:00:00 13.5 C 9.59 g/m*3 13.5 C 3.2 km/h
791 10-10-2019 18:05:00 13.4 C 9.65 g/m*3 13.4 C 3.2 km/h
792 10-10-2019 18:10:00 13.3 C 9.47 g/m*3 13.3 C 11.3 km/h
793 10-10-2019 18:15:00 13.3 C 9.36 g/m*3 13.3 C 4.8 km/h
794 10-10-2019 18:20:00 13.4 C 9.65 g/m*3 13.4 C 9.7 km/h
795 10-10-2019 18:25:00 13.4 C 9.53 g/m*3 13.4 C 3.2 km/h
796 10-10-2019 18:30:00 13.3 C 9.7 g/m*3 13.3 C 1.6 km/h
797 10-10-2019 18:35:00 13.3 C 9.7 g/m*3 13.3 C 3.2 km/h
798 10-10-2019 18:40:00 13.1 C 9.59 g/m*3 13.1 C 1.6 km/h
799 10-10-2019 18:45:00 12.9 C 9.47 g/m*3 12.9 C 1.6 km/h
800 10-10-2019 18:50:00 12.7 C 9.35 g/m*3 12.7 C 3.2 km/h
Sensor: Nr:Datum:Temp:Abs-Feuchte:Windchill:Wind:
Aussen-T/F 801 10-10-2019 18:55:00 12.6 C 9.29 g/m*3 12.6 C 3.2 km/h
802 10-10-2019 19:00:00 12.4 C 9.29 g/m*3 12.4 C 1.6 km/h
803 10-10-2019 19:05:00 12.3 C 9.34 g/m*3 12.3 C 1.6 km/h
804 10-10-2019 19:10:00 12.1 C 9.22 g/m*3 12.1 C 1.6 km/h
805 10-10-2019 19:15:00 11.9 C 9.21 g/m*3 11.9 C 1.6 km/h
806 10-10-2019 19:20:00 11.8 C 9.16 g/m*3 11.8 C 1.6 km/h
807 10-10-2019 19:25:00 11.6 C 9.15 g/m*3 11.6 C 1.6 km/h
808 10-10-2019 19:30:00 11.5 C 9.09 g/m*3 11.5 C 1.6 km/h
809 10-10-2019 19:35:00 11.4 C 9.14 g/m*3 11.4 C 9.7 km/h
810 10-10-2019 19:40:00 11.3 C 9.08 g/m*3 11.3 C 4.8 km/h
811 10-10-2019 19:45:00 11.3 C 9.18 g/m*3 11.3 C 3.2 km/h
812 10-10-2019 19:50:00 11.3 C 9.18 g/m*3 11.3 C 6.4 km/h
813 10-10-2019 19:55:00 11.3 C 9.18 g/m*3 11.3 C 6.4 km/h
814 10-10-2019 20:00:00 11.4 C 9.14 g/m*3 11.4 C 12.9 km/h
815 10-10-2019 20:05:00 11.6 C 9.25 g/m*3 11.6 C 6.4 km/h
816 10-10-2019 20:10:00 11.7 C 9.2 g/m*3 11.7 C 4.8 km/h
817 10-10-2019 20:15:00 11.7 C 9.2 g/m*3 11.7 C 4.8 km/h
818 10-10-2019 20:20:00 11.7 C 9.2 g/m*3 11.7 C 4.8 km/h
819 10-10-2019 20:25:00 11.8 C 9.26 g/m*3 11.8 C 3.2 km/h
820 10-10-2019 20:30:00 11.8 C 9.26 g/m*3 11.8 C 8.1 km/h
821 10-10-2019 20:35:00 11.8 C 9.26 g/m*3 11.8 C 3.2 km/h
822 10-10-2019 20:40:00 11.8 C 9.26 g/m*3 11.8 C 4.8 km/h
823 10-10-2019 20:45:00 11.7 C 9.2 g/m*3 11.7 C 3.2 km/h
824 10-10-2019 20:50:00 11.7 C 9.2 g/m*3 11.7 C 1.6 km/h
825 10-10-2019 20:55:00 11.6 C 9.25 g/m*3 11.6 C 1.6 km/h
Sensor: Nr:Datum:Temp:Abs-Feuchte:Windchill:Wind:
Aussen-T/F 826 10-10-2019 21:00:00 11.4 C 9.14 g/m*3 11.4 C 1.6 km/h
827 10-10-2019 21:05:00 11.4 C 9.14 g/m*3 11.4 C 0 km/h
828 10-10-2019 21:10:00 11.3 C 9.18 g/m*3 11.3 C 0 km/h
829 10-10-2019 21:15:00 11.2 C 9.12 g/m*3 11.2 C 0 km/h
830 10-10-2019 21:20:00 11.1 C 9.07 g/m*3 11.1 C 0 km/h
831 10-10-2019 21:25:00 10.9 C 8.95 g/m*3 10.9 C 0 km/h
832 10-10-2019 21:30:00 10.8 C 8.99 g/m*3 10.8 C 0 km/h
833 10-10-2019 21:35:00 10.7 C 8.94 g/m*3 10.7 C 0 km/h
834 10-10-2019 21:40:00 10.6 C 8.88 g/m*3 10.6 C 0 km/h
835 10-10-2019 21:45:00 10.5 C 8.92 g/m*3 10.5 C 0 km/h
836 10-10-2019 21:50:00 10.4 C 8.87 g/m*3 10.4 C 0 km/h
837 10-10-2019 21:55:00 10.3 C 8.81 g/m*3 10.3 C 1.6 km/h
838 10-10-2019 22:00:00 10.3 C 8.91 g/m*3 10.3 C 0 km/h
839 10-10-2019 22:05:00 10.2 C 8.85 g/m*3 10.2 C 0 km/h
840 10-10-2019 22:10:00 10.2 C 8.85 g/m*3 10.2 C 0 km/h
841 10-10-2019 22:15:00 10.2 C 8.85 g/m*3 10.2 C 1.6 km/h
842 10-10-2019 22:20:00 10.2 C 8.95 g/m*3 10.2 C 0 km/h
843 10-10-2019 22:25:00 10.2 C 8.95 g/m*3 10.2 C 0 km/h
844 10-10-2019 22:30:00 10.2 C 8.95 g/m*3 10.2 C 0 km/h
845 10-10-2019 22:35:00 10.2 C 8.95 g/m*3 10.2 C 0 km/h
846 10-10-2019 22:40:00 10.2 C 8.95 g/m*3 10.2 C 0 km/h
847 10-10-2019 22:45:00 10.1 C 8.89 g/m*3 10.1 C 0 km/h
848 10-10-2019 22:50:00 10.1 C 8.89 g/m*3 10.1 C 0 km/h
849 10-10-2019 22:55:00 10.1 C 8.89 g/m*3 10.1 C 0 km/h
850 10-10-2019 23:00:00 10.1 C 8.89 g/m*3 10.1 C 1.6 km/h
Sensor: Nr:Datum:Temp:Abs-Feuchte:Windchill:Wind:
Aussen-T/F 851 10-10-2019 23:05:00 10.1 C 8.98 g/m*3 10.1 C 0 km/h
852 10-10-2019 23:10:00 10 C 8.93 g/m*3 10 C 0 km/h
853 10-10-2019 23:15:00 9.9 C 8.78 g/m*3 9.9 C 0 km/h
854 10-10-2019 23:20:00 9.8 C 8.72 g/m*3 9.8 C 0 km/h
855 10-10-2019 23:25:00 9.8 C 8.72 g/m*3 9.8 C 0 km/h
856 10-10-2019 23:30:00 9.7 C 8.67 g/m*3 9.7 C 0 km/h
857 10-10-2019 23:35:00 9.6 C 8.61 g/m*3 9.6 C 0 km/h
858 10-10-2019 23:40:00 9.6 C 8.7 g/m*3 9.6 C 4.8 km/h
859 10-10-2019 23:45:00 9.7 C 8.76 g/m*3 9.7 C 1.6 km/h
860 10-10-2019 23:50:00 9.7 C 8.76 g/m*3 9.7 C 0 km/h
861 10-10-2019 23:55:00 9.6 C 8.7 g/m*3 9.6 C 3.2 km/h

Legende:
   Min
   Max


Maximal/Minimal-Werte vom 14.04.2020 - 16.05.2020

Sensor Min Max Avg
Temp
(Aussen-T/F)
-0.1 °C
15-04-2020  06:55:00
26.2 °C
17-04-2020  18:05:00
11.98 °C

Die Daten stammen von einer Davis Vantage Pro 2 Wetter-Station und werden unter Linux mit der Software wview2wettercgi und aufbereitet. Alle Angaben erfolgen ohne Gewähr für ihre Vollständigkeit oder Richtigkeit.
Kontakt: Rainer Krienke krienke@uni-koblenz.de . Meine Webseiten an der Uni Koblenz oder privat.
Version: $Revision: 0.78 $